Regional Weather Roundup
Issued by NWS

Home | Current Version | Previous Version | Text Only | Print | Product List | Glossary On
Versions: 1 2 3 4 5 6 7 8 9 10 11 12 13 14 15 16 17 18 19 20 21 22 23 24 25 26 27 28 29 30 31 32 33 34 35 36 37 38 39 40 41 42 43 44 45 46 47 48 49 50
834
ASUS45 KBOU 262307
RWRCO

WEATHER ROUNDUP FOR COLORADO
NATIONAL WEATHER SERVICE DENVER/BOULDER CO
500 PM MDT FRI MAY 26 2017

NOTE: "FAIR" INDICATES FEW OR NO CLOUDS BELOW 12000 FEET WITH NO
SIGNIFICANT WEATHER AND/OR OBSTRUCTIONS TO VISIBILITY.

COZ001>005-013-030-031-270000-
...NORTHWEST COLORADO...

CITY           SKY/WX    TMP DP  RH WIND       PRES   REMARKS
CRAIG          CLOUDY    67  29  24 NW13G20   29.80S
HAYDEN         FAIR      64  27  24 W16       29.82R
MEEKER         FAIR      73  17  12 SW18G31   29.81S
RABBIT EARS PA NOT AVBL
STEAMBOAT SPGS NOT AVBL
WALDEN         NOT AVBL
$$

COZ006>008-011-270000-
...WEST CENTRAL VALLEYS...

CITY           SKY/WX    TMP DP  RH WIND       PRES   REMARKS
GRAND JUNCTION FAIR      82  13   7 SW13G30   29.73F
MONTROSE       FAIR      77  11   8 W20G28    29.85F
EAGLE          MOSUNNY   73  16  11 W23G37    29.86S
RIFLE          FAIR      79   6   6 SW30G37   29.77F
DELTA          FAIR      84  12   6 SW26G36   29.81S
NUCLA          FAIR      77  10   8 S18G37    29.90F
$$

COZ017>023-064>068-270000-
...SOUTHWEST COLORADO...

CITY           SKY/WX    TMP DP  RH WIND       PRES   REMARKS
DURANGO        FAIR      73   9   8 SW16G29   29.97F
CORTEZ         FAIR      78   7   6 SW15G22   29.91F
PAGOSA SPRINGS FAIR      69   4   7 SW16G23   30.04S
TELLURIDE      FAIR      62  10  13 CALM      30.09S
WOLF CREEK PAS NOT AVBL
$$

COZ009-010-012-014-032>034-037-058>063-270000-
...CENTRAL COLORADO...

CITY           SKY/WX    TMP DP  RH WIND       PRES   REMARKS
ASPEN          FAIR      67  16  14 SW9G21    29.93F
BUENA VISTA    PTSUNNY   65  20  18 N6        29.95S
COPPER MTN     NOT AVBL
BERTHOUD PASS  NOT AVBL
COTTONWOOD PAS NOT AVBL
GUNNISON       FAIR      65  21  18 SW7       29.96S
KREMMLING      NOT AVBL
LEADVILLE      PTSUNNY   56  15  20 SE12G22   30.05F
SALIDA         FAIR      71  12  10 S9        29.99F
SUNLIGHT       NOT AVBL
WILKERSON PASS NOT AVBL
$$

COZ069>075-270000-
...SAN LUIS VALLEY/SANGRE DE CRISTO MOUNTAINS...

CITY           SKY/WX    TMP DP  RH WIND       PRES   REMARKS
ALAMOSA        FAIR      72  11   9 SW24G35   29.98S
DEL NORTE      NOT AVBL
LA VETA PASS   NOT AVBL
SAGUACHE       NOT AVBL
$$

COZ035-036-038>040-270000-
...NORTHERN COLORADO FRONT RANGE...

CITY           SKY/WX    TMP DP  RH WIND       PRES   REMARKS
DENVER INTL AP FAIR      74  47  38 S18G24    29.80F
DMNS CITY PARK   N/A     70  50  48 N7G13     29.80F
AURORA         PTSUNNY   72  47  41 SW18G24   29.82F
FRONT RANGE AP PTSUNNY   75  43  31 S20G33    29.82
ERIE MUNI ARPT NOT AVBL
BOULDER MUN AP NOT AVBL
CENTENNIAL     FAIR      68  50  52 SW13      29.85R
BROOMFIELD     PTSUNNY   66  52  59 NW3       29.84F
FORT COLLINS   PTSUNNY   66  51  58 NW10      29.83F
LONGMONT       NOT AVBL
$$

COZ041-046-047-076>085-087-088-270000-
...PIKES PEAK/PALMER DIVIDE AND SOUTHERN FOOTHILLS...

CITY           SKY/WX    TMP DP  RH WIND       PRES   REMARKS
COLO. SPRINGS  PTSUNNY   70  43  37 SE21      29.86F
A. F. ACADEMY  PTSUNNY   65  44  47 S13       29.88F
SCHRIEVER AFB  FAIR      68  41  37 SE17G31   29.86F
CHEYENNE MTN   PTSUNNY   64  43  46 SE14G20   29.86F
ELLICOTT       FAIR     N/A N/A N/A SE25G36   29.85F
FALCON         PTSUNNY   63  42  46 SE15G21   29.90F
FORT CARSON    FAIR      74  43  32 SE18      29.83F
LIMON          FAIR      72  46  39 S28G35    29.85F
MONUMENT HILL  NOT AVBL
CANON CITY     NOT AVBL
WALSENBURG     FAIR      79  21  11 SW24G35   29.86S
TRINIDAD       FAIR      80  23  12 S26G35    29.85F
$$

COZ042>045-048>051-090-091-270000-
...NORTHEAST COLORADO...

CITY           SKY/WX    TMP DP  RH WIND       PRES   REMARKS
GREELEY ARPT   FAIR      71  51  49 E20       29.80F
AKRON          TSTM      55  46  71 E17       29.86F
BURLINGTON     FAIR      73  52  47 SE18G25   29.86F
WRAY           FAIR      68  48  49 SE5       29.89R
YUMA           NOT AVBL
STERLING       NOT AVBL
HOLYOKE        NOT AVBL
FORT MORGAN    FAIR      65  47  51 SE21      29.82F
$$

COZ086-089-092>099-270000-
...SOUTHEAST COLORADO...

CITY           SKY/WX    TMP DP  RH WIND       PRES   REMARKS
PUEBLO         FAIR      81  45  28 SE24G33   29.74F
LA JUNTA       FAIR      81  45  28 SE24G33   29.77F
LAMAR          FAIR      82  47  29 SE16G28   29.80F
SPRINGFIELD      N/A     78  47  33 SE23G29   29.86F
$$




USA.gov is the U.S. government's official web portal to all federal, state and local government web resources and services.